Regional Weather Roundup
Issued by NWS Sioux Falls, SD

Home | Current Version | Previous Version | Text Only | Print | Product List | Glossary On
Versions: 1 2 3 4 5 6 7 8 9 10 11 12 13 14 15 16 17 18 19 20 21 22 23 24 25 26 27 28 29 30 31 32 33 34 35 36 37 38 39 40 41 42 43 44 45 46 47 48 49 50
000
ASUS43 KFSD 010010
RWRFSD

WEATHER ROUNDUP FOR SE SOUTH DAKOTA/SW MINNESOTA/NW IOWA
NATIONAL WEATHER SERVICE SIOUX FALLS SD
700 PM CDT TUE JUN 30 2015

NOTE: "FAIR" INDICATES FEW OR NO CLOUDS BELOW 12,000 FEET WITH NO
SIGNIFICANT WEATHER AND OR OBSTRUCTIONS TO VISIBILITY.


SDZ038>040-050-052>070-010100-
SOUTHEAST SOUTH DAKOTA

CITY           SKY/WX    TMP DP  RH WIND       PRES   REMARKS
BROOKINGS      CLOUDY    72  61  68 E9        29.92S
CHAMBERLAIN    CLOUDY    72  66  81 E6        29.88F
6HR MIN TEMP:  72; 6HR MAX TEMP:  78;

HURON          LGT RAIN  71  69  93 CALM      29.88S FOG
6HR MIN TEMP:  70; 6HR MAX TEMP:  73; 6HR PCP:  0.03;

MADISON        FAIR      72  72 100 SW5       29.92R
MITCHELL       LGT RAIN  71  70  96 CALM      29.90R FOG
6HR MIN TEMP:  70; 6HR MAX TEMP:  73; 6HR PCP:  0.07;

SIOUX FALLS    CLOUDY    72  65  78 W3        29.90R
6HR MIN TEMP:  72; 6HR MAX TEMP:  76; 6HR PCP:  0.03;

WINNER         FAIR      79  60  52 E17       29.87S
YANKTON        CLOUDY    70  66  88 E3        29.86F
$$

MNZ071-072-080-081-089-090-097-098-010100-
SOUTHWEST MINNESOTA

CITY           SKY/WX    TMP DP  RH WIND       PRES   REMARKS
FAIRMONT       PTSUNNY   72  57  60 CALM      29.90F
JACKSON        CLOUDY    70  63  78 NE6       29.92S
LUVERNE        CLOUDY    75  66  73 W5        29.90S
MARSHALL       CLOUDY    70  61  73 E5          N/A
6HR MIN TEMP:  70; 6HR MAX TEMP:  72;

MONTEVIDEO     PTSUNNY   73  61  64 CALM      29.92S
PIPESTONE      CLOUDY    72  63  73 E6        29.92R
REDWOOD FALLS  PTSUNNY   74  58  57 S3        29.90S
TRACY          CLOUDY    71  64  79 CALM      29.92S
WINDOM         CLOUDY    70  61  73 CALM      29.92S
WORTHINGTON    CLOUDY    70  61  73 E9        29.92R
$$

IAZ001>003-012>014-020>022-031-032-NEZ013-014-SDZ071-010100-
NORTHWEST IOWA

CITY           SKY/WX    TMP DP  RH WIND       PRES   REMARKS
CHEROKEE       LGT RAIN  73  70  90 S3        29.88F
DENISON        CLOUDY    73  70  88 CALM      29.88S
ESTHERVILLE    CLOUDY    70  62  76 NE5       29.90F
LE MARS        LGT RAIN  70  70 100 CALM      29.90F
ORANGE CITY    CLOUDY    70  66  88 SW6       29.90S
SHELDON        CLOUDY    73  73 100 CALM      29.89R
SIOUX CITY     CLOUDY    74  66  76 E5        29.88S
6HR MIN TEMP:  73; 6HR MAX TEMP:  74; 6HR PCP:  0.01;

SPENCER        CLOUDY    74  63  68 E7        29.90S
6HR MIN TEMP:  74; 6HR MAX TEMP:  80;

STORM LAKE     CLOUDY    73  66  78 SE3       29.90S
$$

ABBREVIATIONS USED IN REMARKS
   TC - TEMPERATURE IN CELSIUS
  WCI - WIND CHILL INDEX
   HX - HEAT INDEX
  VSB - VISIBILITY



USA.gov is the U.S. government's official web portal to all federal, state and local government web resources and services.